This is the latest recevied weather packets stored in our database for station/object K3JSE-4. If no packets are shown the sender has not sent any weather packets the latest 10 day(s).
| Time | Temp. | Humidity | Pressure | Rain* | Wind** | Luminosity | Snow |
|---|---|---|---|---|---|---|---|
| 1777754144 | 13.89° C | 39% | 1011.7 hPa | 0 mm | - | - | - |
| 1777753844 | 13.89° C | 40% | 1011.7 hPa | 0 mm | - | - | - |
| 1777753544 | 14.44° C | 40% | 1011.7 hPa | 0 mm | - | - | - |
| 1777753244 | 14.44° C | 42% | 1011.8 hPa | 0 mm | - | - | - |
| 1777752944 | 13.33° C | 41% | 1011.7 hPa | 0 mm | - | - | - |
| 1777752644 | 13.33° C | 37% | 1011.8 hPa | 0 mm | - | - | - |
| 1777752344 | 13.89° C | 39% | 1011.8 hPa | 0 mm | - | - | - |
| 1777752044 | 13.89° C | 40% | 1011.8 hPa | 0 mm | - | - | - |
| 1777751744 | 14.44° C | 39% | 1011.9 hPa | 0 mm | - | - | - |
| 1777751444 | 15° C | 39% | 1011.9 hPa | 0 mm | - | - | - |
| 1777751144 | 15° C | 39% | 1012 hPa | 0 mm | - | - | - |
| 1777750844 | 15° C | 38% | 1012.1 hPa | 0 mm | - | - | - |
| 1777750544 | 14.44° C | 40% | 1012.3 hPa | 0 mm | - | - | - |
| 1777750244 | 13.89° C | 40% | 1012.3 hPa | 0 mm | - | - | - |
| 1777749944 | 14.44° C | 37% | 1012.4 hPa | 0 mm | - | - | - |
| 1777749644 | 15° C | 36% | 1012.5 hPa | 0 mm | - | - | - |
| 1777749344 | 15.56° C | 38% | 1012.5 hPa | 0 mm | - | - | - |
| 1777749044 | 14.44° C | 40% | 1012.6 hPa | 0 mm | - | - | - |
| 1777748744 | 14.44° C | 40% | 1012.7 hPa | 0 mm | - | - | - |
| 1777748444 | 14.44° C | 37% | 1012.7 hPa | 0 mm | - | - | - |
| 1777748144 | 15° C | 41% | 1012.8 hPa | 0 mm | - | - | - |
| 1777747844 | 14.44° C | 43% | 1012.8 hPa | 0 mm | - | - | - |
| 1777747544 | 13.33° C | 41% | 1012.9 hPa | 0 mm | - | - | - |
| 1777747244 | 13.33° C | 41% | 1013 hPa | 0 mm | - | - | - |
| 1777746944 | 12.78° C | 41% | 1013.1 hPa | 0 mm | - | - | - |
* Rain latest hour (hover to see other rain measurements)
** Current wind speed in m/s (hover to see current wind gust speed)